Location: Bow
(51.5261°N, 0.0167°W)
Time: 03:27:45
(UTC+00:00)

NOSS 3-2 (C) - Pass Details

Date: 18 September 2020
Orbit: 795 x 1418 km, 63.4° (Epoch: 02 October)

Event Time Altitude Azimuth Distance (km) Brightness Sun altitude
Rises 20:32:34 0° 314° (NW) 3,919 8.1 -22.2°
Reaches altitude 10° 20:35:06 10° 313° (NW) 3,042 7.2 -22.5°
Maximum altitude 20:42:26 69° 232° (SW) 1,347 4.2 -23.4°
Enters shadow 20:46:12 35° 160° (SSE) 1,993 4.6 -23.9°
